SALSAT

Last updated on Fri Jun 19 2026 20:04:29 GMT+0000 (Coordinated Universal Time)

1 46495U 20068K 26170.56565365 .00006150 00000+0 21565-3 0 9994 2 46495 97.8853 173.7751 0007913 298.1437 61.9002 15.29827493315721
UTC large
Height (km)
Speed (km/s)
/
Latitude / Longitude
Inclination (degrees)
Orbital Period (minutes)
Azimuth
Elevation
Range (km)
Doppler Factor

Next 0 passes for location: London (51.5072 / 0.1276)

Sorry there are no passes over London.
SALSAT